Location: Casco Millpond
(44.5581°N, 87.6111°W)
Time: 09:09:24
(UTC+00:00)

SJ-12 - Pass Details

Date: 16 January 2026
Orbit: 515 x 525 km, 97.8° (Epoch: 10 February)

Event Time Altitude Azimuth Distance (km) Brightness Sun altitude
Rises 12:40:44 0° 11° (N) 2,669 7.2 -7.6°
Reaches altitude 10° 12:42:51 10° 10° (N) 1,774 6.3 -7.3°
Maximum altitude 12:46:40 76° 285° (WNW) 545 3.7 -6.7°
Drops below altitude 10° 12:50:26 10° 200° (SSW) 1,752 6.5 -6.0°
Sets 12:52:31 0° 198° (SSW) 2,633 7.4 -5.7°
